Regional Weather Roundup
Issued by NWS

Home | Current Version | Previous Version | Text Only | Print | Product List | Glossary On
Versions: 1 2 3 4 5 6 7 8 9 10 11 12 13 14 15 16 17 18 19 20 21 22 23 24 25 26 27 28 29 30 31 32 33 34 35 36 37 38 39 40 41 42 43 44 45 46 47 48 49 50
000
ASUS43 KMKX 030411
RWRWI

WISCONSIN REGIONAL WEATHER ROUNDUP
NATIONAL WEATHER SERVICE MILWAUKEE/SULLIVAN WI
1000 PM CST MON MAR 02 2015

NOTE: "FAIR" INDICATES FEW OR NO CLOUDS BELOW 12,000 FEET WITH NO
SIGNIFICANT WEATHER AND/OR OBSTRUCTIONS TO VISIBILITY.

WIZ001-002-006>008-014>016-023>028-030500-
NORTHWEST WISCONSIN

CITY           SKY/WX    TMP DP  RH WIND       PRES   REMARKS
SUPERIOR ARPT  CLOUDY    22   6  49 SW9       30.08F WCI  12
ASHLAND        FAIR      19   2  47 S7        30.11F WCI  10
HAYWARD        CLOUDY    21   5  50 S8        30.09F WCI  11
SIREN          FAIR      22   7  53 S8        30.10F WCI  12
CUMBERLAND     CLOUDY    21   9  58 S9        30.10F WCI  11
RICE LAKE      CLOUDY    22   8  54 S8        30.14F WCI  13
CHETEK         CLOUDY    22   8  55 SE6       30.14F WCI  15
LADYSMITH      CLOUDY    21   7  54 S3        30.15F
EAU CLAIRE     CLOUDY    23   7  50 S8        30.15F WCI  14
MENOMONIE      CLOUDY    23  10  56 S8        30.15F WCI  14
NEW RICHMOND   CLOUDY    21   9  60 S12       30.13S WCI   9
OSCEOLA        CLOUDY    22  11  61 S9        30.15F WCI  12
$$

WIZ003>005-009-010-017-018-030500-
NORTH CENTRAL WISCONSIN

CITY           SKY/WX    TMP DP  RH WIND       PRES   REMARKS
MANITOWISH WTR FAIR      14   0  54 S7        30.10F WCI   4
ARBOR VITAE    FAIR      17   3  55 S7        30.11F WCI   7
WOODRUFF       FAIR      17   3  55 S7        30.11F WCI   7
RHINELANDER    CLOUDY    18   2  49 S3        30.13F
EAGLE RIVER    FAIR      14   0  52 CALM      30.12F
LAND O LAKES   FAIR      15   3  59 S5        30.11F WCI   7
PHILLIPS       FAIR      17   5  57 S6        30.11F WCI   9
TOMAHAWK       FAIR      16   4  57 CALM      30.15F
MEDFORD        CLOUDY    19   9  64 S5        30.14F WCI  12
MERRILL        CLOUDY    19   6  57 CALM      30.16F
$$

WIZ029-030-035-036-043>047-030500-
CENTRAL WISCONSIN

CITY           SKY/WX    TMP DP  RH WIND       PRES   REMARKS
WAUSAU         CLOUDY    21   7  54 SE6       30.15F WCI  13
MOSINEE        CLOUDY    21  10  63 S6        30.18F WCI  14
MARSHFIELD     CLOUDY    24   8  50 S8        30.16F WCI  15
STEVENS POINT  CLOUDY    22   8  53 S8        30.19F WCI  13
WAUPACA        CLOUDY    26  12  55 S7        30.23F WCI  19
WAUTOMA        CLOUDY    25  13  60 S7        30.22F WCI  17
WISC RAPIDS    CLOUDY    25   6  44 S7        30.20F WCI  17
CAMP DOUGLAS   FAIR      24  14  66 S8        30.20F WCI  15
$$

WIZ011>013-019>022-031-037>040-048>050-030500-
NORTHEAST WISCONSIN

CITY           SKY/WX    TMP DP  RH WIND       PRES   REMARKS
ANTIGO         MOCLDY    18   6  59 S7        30.15F WCI   8
SHAWANO        FAIR      25  12  58 CALM      30.24S
OCONTO         FAIR      21  14  72 S3        30.25S
STURGEON BAY   FAIR      21  14  73 S9        30.28S WCI  11
GREEN BAY      FAIR      24  16  71 S7        30.25F WCI  16
MANITOWOC      FAIR      26  18  71 SW8       30.26F WCI  18
APPLETON       CLOUDY    25  10  54 S9        30.24F WCI  15
CLINTONVILLE   CLOUDY    25  12  58 S7        30.22F WCI  17
OSHKOSH        CLOUDY    24  13  62 S9        30.24F WCI  14
$$

WIZ032>034-041-042-053>061-030500-
SOUTHWEST WISCONSIN

CITY           SKY/WX    TMP DP  RH WIND       PRES   REMARKS
LA CROSSE      CLOUDY    26  14  60 S9        30.20F WCI  17
SPARTA         CLOUDY    25  13  61 S6        30.21S WCI  18
VIROQUA        CLOUDY    23  15  72 SE10      30.17F WCI  12
BOSCOBEL       CLOUDY    26  15  63 S3        30.23F
PRAIRIE DU CHI CLOUDY    26  15  63 SE7       30.21F WCI  18
PLATTEVILLE    CLOUDY    24  17  75 SE7       30.21F WCI  16
$$

WIZ056-057-062-063-064-067-068-030500-
SOUTH CENTRAL WISCONSIN

CITY           SKY/WX    TMP DP  RH WIND       PRES   REMARKS
REEDSBURG      CLOUDY    24  14  67 S8        30.22S WCI  14
BARABOO/DELLS  CLOUDY    23  14  69 S10       30.21F WCI  12
LONE ROCK      CLOUDY    24  15  68 SE5       30.24F WCI  18
MINERAL POINT  CLOUDY    27  18  69 S8        30.21F WCI  18
MADISON        CLOUDY    25  15  66 S9        30.25F WCI  15
MIDDLETON      CLOUDY    26  16  66 S12       30.24F WCI  15
WATERTOWN      CLOUDY    24  16  71 S6        30.25F WCI  17
MONROE         CLOUDY    23  19  86 S7        30.23F WCI  15
JANESVILLE     CLOUDY    28  18  64 S5        30.27F WCI  23
$$

WIZ051-052-058>065-066-070>072-030500-
SOUTHEAST WISCONSIN

CITY           SKY/WX    TMP DP  RH WIND       PRES   REMARKS
MILWAUKEE      CLOUDY    25  16  68 S8        30.28F WCI  16
WAUKESHA       CLOUDY    23  14  68 S5        30.27F WCI  17
MILWAUKEE/TIMM CLOUDY    27  18  69 S5        30.28F WCI  21
RACINE         CLOUDY    27  18  69 SW7       30.30F WCI  19
BURLINGTON     CLOUDY    23  15  71 SW6       30.28F WCI  16
KENOSHA        CLOUDY    26  18  71 SW6       30.28F WCI  19
FOND DU LAC    CLOUDY    25  12  58 S9        30.24F WCI  15
SHEBOYGAN      CLOUDY    25  14  63 S13       30.26F WCI  14
WEST BEND      CLOUDY    25  14  63 S6        30.25F WCI  18
JUNEAU         CLOUDY    24  14  66 S9        30.25F WCI  14
$$

LSZ147-162-030500-
LAKE SUPERIOR

STATION/POSITION TIME  TEMP    WIND        PRES    WAVE
                       AIR SEA DIR/SP/G            HT/PER
                 (UTC) (F)     (DEG/KT/KT) (MB)    (FT/S)
DEVILS ISLAND    0400   22     210/  7/  8 1020.8F
PORT WING        0320   21     180/  7/ 12 1019.6F
SAXON HARBOR     0400   23     190/  8/ 12 1019.3F
$$

LMZ867-665-643>646-030500-
LAKE MICHIGAN

STATION/POSITION TIME  TEMP    WIND        PRES    WAVE
                       AIR SEA DIR/SP/G            HT/PER
                 (UTC) (F)     (DEG/KT/KT) (MB)    (FT/S)
NORTHPORT PIER   0402   21     210/  3/  7 1024.4F
SISTER BAY       0313   20     180/ 10/ 12   N/A
KEWAUNEE LAKESHO 0300   24                 1024.3F
SHEBOYGAN LAKESH 0400   27     200/ 15/ 17 1026.0F
PORT WASHINGTON  0300   27     200/  7/ 11 1026.8
MILWAUKEE LAKESH 0300   26     200/  7/  9   N/A
KENOSHA   LAKESH 0400   27     220/  5/  7 1025.7F
$$

TC  - TEMPERATURE IN CELSIUS
VSB - VISIBILITY IN STATUTE MILES
WCI - WIND CHILL INDEX
HX  - HEAT INDEX




USA.gov is the U.S. government's official web portal to all federal, state and local government web resources and services.